TimeEST,TemperatureF,Dew PointF,Humidity,Sea Level PressureIn,VisibilityMPH,Wind Direction,Wind SpeedMPH,Gust SpeedMPH,PrecipitationIn,Events,Conditions,WindDirDegrees,DateUTC
12:53 AM,30.0,24.1,79,30.25,10.0,West,6.9,-,N/A,,Overcast,280,2013-12-31 05:53:00
1:53 AM,30.0,23.0,75,30.25,10.0,SW,9.2,-,N/A,,Overcast,230,2013-12-31 06:53:00
2:53 AM,30.0,23.0,75,30.25,10.0,West,6.9,-,N/A,,Overcast,270,2013-12-31 07:53:00
3:53 AM,28.9,23.0,78,30.27,10.0,West,8.1,-,N/A,,Overcast,260,2013-12-31 08:53:00
4:42 AM,28.0,21.9,78,30.24,10.0,SW,4.6,-,N/A,,Scattered Clouds,230,2013-12-31 09:42:00
4:53 AM,28.0,21.9,78,30.28,10.0,WSW,6.9,-,N/A,,Partly Cloudy,250,2013-12-31 09:53:00
5:53 AM,27.0,21.0,78,30.28,10.0,SW,6.9,-,N/A,,Clear,230,2013-12-31 10:53:00
6:53 AM,27.0,21.9,81,30.30,8.0,SW,5.8,-,N/A,,Clear,220,2013-12-31 11:53:00
7:53 AM,27.0,21.9,81,30.34,8.0,WSW,9.2,-,N/A,,Clear,240,2013-12-31 12:53:00
8:53 AM,27.0,21.9,81,30.38,9.0,WSW,11.5,-,N/A,,Partly Cloudy,250,2013-12-31 13:53:00
9:53 AM,30.0,21.0,69,30.42,10.0,West,9.2,-,N/A,,Partly Cloudy,280,2013-12-31 14:53:00
10:53 AM,32.0,19.0,59,30.45,10.0,West,11.5,-,N/A,,Clear,280,2013-12-31 15:53:00
11:53 AM,33.1,19.0,56,30.44,10.0,West,8.1,-,N/A,,Clear,260,2013-12-31 16:53:00
12:53 PM,36.0,19.9,52,30.41,10.0,Variable,6.9,-,N/A,,Clear,0,2013-12-31 17:53:00
1:53 PM,37.0,19.9,50,30.38,10.0,West,5.8,-,N/A,,Clear,260,2013-12-31 18:53:00
2:53 PM,37.9,19.9,48,30.37,10.0,SSW,5.8,-,N/A,,Clear,210,2013-12-31 19:53:00
3:53 PM,39.0,19.9,46,30.37,10.0,Variable,5.8,-,N/A,,Clear,0,2013-12-31 20:53:00
4:53 PM,37.9,19.0,47,30.38,10.0,WSW,3.5,-,N/A,,Clear,240,2013-12-31 21:53:00
5:53 PM,36.0,19.9,52,30.37,10.0,Calm,Calm,-,N/A,,Clear,0,2013-12-31 22:53:00
6:53 PM,32.0,21.0,64,30.38,10.0,Calm,Calm,-,N/A,,Clear,0,2013-12-31 23:53:00
7:53 PM,30.9,21.0,67,30.37,10.0,Calm,Calm,-,N/A,,Clear,0,2014-01-01 00:53:00
8:53 PM,28.9,21.0,72,30.38,10.0,Calm,Calm,-,N/A,,Clear,0,2014-01-01 01:53:00
9:53 PM,28.0,21.0,75,30.36,10.0,Calm,Calm,-,N/A,,Clear,0,2014-01-01 02:53:00
10:53 PM,27.0,21.0,78,30.35,10.0,Calm,Calm,-,N/A,,Clear,0,2014-01-01 03:53:00
11:53 PM,26.1,21.0,81,30.34,10.0,Calm,Calm,-,N/A,,Clear,0,2014-01-01 04:53:00